�N����,����,�~����,�C��,���x,�C��,����,���ϕ���,�ő�u�ԕ���,�ő厞����,���˗�,�I�_���x,�n�����x,�ő啗���N��,DTYPE
"20/06/18","00:10",0.0,19.9,73.1,1001.2,305.8,0.8,1.7,333.8,0.00,15.0,23.2,"00:07:12",1
"20/06/18","00:20",0.0,19.5,74.6,1000.8,287.9,1.0,1.6,311.6,0.00,14.9,23.1,"00:10:56",1
"20/06/18","00:30",0.0,19.5,74.7,1000.8,291.0,1.1,2.4,319.6,0.00,14.9,22.9,"00:25:28",1
"20/06/18","00:40",0.0,19.5,74.4,1001.0,279.5,0.6,1.2,266.4,0.00,14.9,22.8,"00:32:32",1
"20/06/18","00:50",0.0,19.5,73.9,1001.0,285.5,1.1,1.8,321.5,0.00,14.8,22.7,"00:48:00",1
"20/06/18","01:00",0.0,19.7,74.3,1001.2,336.0,0.7,1.2,313.9,0.00,15.0,22.7,"00:50:48",1
"20/06/18","01:10",0.0,19.4,74.9,1001.0,286.9,0.6,0.9,269.4,0.00,14.9,22.7,"01:02:08",1
"20/06/18","01:20",0.0,19.2,75.8,1001.0,305.9,0.8,1.2,306.1,0.00,14.9,22.8,"01:14:56",1
"20/06/18","01:30",0.0,19.3,76.9,1001.0,315.6,1.1,1.8,301.1,0.00,15.2,22.5,"01:26:00",1
"20/06/18","01:40",0.0,19.0,77.3,1000.8,288.5,0.8,1.6,306.1,0.00,15.0,22.6,"01:38:16",1
"20/06/18","01:50",0.0,19.1,76.9,1001.0,291.5,1.0,1.3,262.0,0.00,15.0,22.7,"01:43:04",1
"20/06/18","02:00",0.0,19.1,76.6,1001.0,299.1,1.0,1.4,335.7,0.00,14.9,22.5,"01:50:56",1
"20/06/18","02:10",0.0,19.2,76.3,1000.8,308.2,0.7,1.8,319.3,0.00,15.0,22.6,"02:01:28",1
"20/06/18","02:20",0.0,19.2,76.1,1000.8,296.7,1.1,2.1,319.0,0.00,14.9,22.2,"02:14:16",1
"20/06/18","02:30",0.0,19.4,76.3,1000.8,311.9,1.0,1.3,319.5,0.00,15.2,22.3,"02:23:52",1
"20/06/18","02:40",0.0,19.3,76.9,1000.8,309.4,0.8,1.1,311.3,0.00,15.2,22.2,"02:30:56",1
"20/06/18","02:50",0.0,19.0,77.4,1001.0,302.5,0.6,1.3,319.5,0.00,15.0,22.4,"02:44:48",1
"20/06/18","03:00",0.0,19.0,77.9,1000.5,277.9,0.7,1.0,275.2,0.00,15.1,22.2,"02:58:24",1
"20/06/18","03:10",0.0,18.9,78.1,1000.5,297.9,0.8,1.2,307.4,0.00,15.0,22.3,"03:08:40",1
"20/06/18","03:20",0.0,19.1,79.0,1000.5,322.0,1.1,1.7,332.2,0.00,15.4,22.3,"03:13:04",1
"20/06/18","03:30",0.0,18.9,79.7,1000.5,303.3,0.7,1.3,339.8,0.00,15.4,22.4,"03:21:52",1
"20/06/18","03:40",0.0,18.7,80.1,1000.8,282.6,0.7,1.0,276.2,0.00,15.2,22.1,"03:38:48",1
"20/06/18","03:50",0.0,18.6,80.3,1000.8,289.9,0.7,1.2,335.7,0.00,15.2,22.1,"03:42:16",1
"20/06/18","04:00",0.0,18.7,80.1,1000.5,289.6,0.8,1.3,267.2,0.00,15.2,22.2,"03:51:28",1
"20/06/18","04:10",0.0,18.8,80.0,1001.0,311.7,0.8,1.4,331.4,0.00,15.3,22.1,"04:02:48",1
"20/06/18","04:20",0.0,18.8,80.2,1001.0,314.1,0.7,1.1,311.8,0.00,15.4,22.1,"04:16:16",1
"20/06/18","04:30",0.0,18.7,80.4,1001.0,275.2,0.7,0.9,295.6,0.00,15.3,22.1,"04:25:36",1
"20/06/18","04:40",0.0,18.7,80.5,1001.0,292.2,0.8,1.4,330.9,0.00,15.3,22.1,"04:37:28",1
"20/06/18","04:50",0.0,18.7,80.5,1001.0,288.8,0.8,1.1,307.0,0.00,15.3,21.8,"04:44:00",1
"20/06/18","05:00",0.0,18.8,80.4,1001.0,295.7,1.0,1.4,318.9,0.00,15.4,22.0,"04:55:28",1
"20/06/18","05:10",0.0,18.9,80.2,1000.8,286.7,0.8,1.3,299.5,0.00,15.5,22.0,"05:00:40",1
"20/06/18","05:20",0.0,19.0,80.1,1000.5,278.2,0.7,1.1,258.9,0.00,15.5,21.9,"05:16:16",1
"20/06/18","05:30",0.0,19.0,79.9,1001.0,294.5,0.8,1.3,309.8,0.00,15.5,21.9,"05:21:44",1
"20/06/18","05:40",0.0,19.3,80.4,1000.8,331.1,1.0,1.6,325.3,0.00,15.9,21.7,"05:30:02",1
"20/06/18","05:50",0.0,19.0,80.7,1001.0,296.7,1.0,2.0,328.0,0.00,15.6,21.9,"05:48:32",1
"20/06/18","06:00",0.0,19.1,80.9,1001.0,287.1,0.8,1.4,308.8,0.00,15.8,21.8,"05:50:48",1
"20/06/18","06:10",0.0,19.3,80.8,1001.0,287.7,0.7,1.4,328.5,0.00,16.0,21.8,"06:05:28",1
"20/06/18","06:20",0.0,19.4,80.6,1000.8,289.3,1.0,1.6,297.6,0.01,16.0,21.7,"06:17:44",1
"20/06/18","06:30",0.0,19.7,80.5,1001.0,315.5,1.1,1.6,355.3,0.01,16.3,22.0,"06:29:12",1
"20/06/18","06:40",0.0,20.0,80.8,1000.5,323.8,1.2,1.7,311.5,0.04,16.6,21.8,"06:36:16",1
"20/06/18","06:50",0.0,20.0,81.1,1000.8,308.5,1.1,1.6,313.4,0.04,16.7,21.9,"06:44:16",1
"20/06/18","07:00",0.0,20.3,81.0,1000.8,301.3,1.0,1.7,321.5,0.05,17.0,21.9,"06:58:16",1
"20/06/18","07:10",0.0,20.5,80.5,1000.8,317.6,1.1,1.8,304.5,0.03,17.1,22.1,"07:01:28",1
"20/06/18","07:20",0.0,20.6,80.1,1000.5,288.3,0.8,1.1,312.0,0.02,17.1,22.0,"07:11:20",1
"20/06/18","07:30",0.0,20.6,79.9,1000.8,305.4,1.2,2.5,338.5,0.01,17.1,22.0,"07:29:04",1
"20/06/18","07:40",0.0,20.7,80.3,1001.0,330.0,1.3,2.4,331.5,0.01,17.2,22.2,"07:31:44",1
"20/06/18","07:50",0.0,20.7,80.8,1001.0,300.7,1.2,1.7,325.5,0.02,17.3,22.0,"07:41:36",1
"20/06/18","08:00",0.0,20.8,81.2,1000.8,279.9,1.1,1.8,247.1,0.04,17.5,22.2,"07:52:08",1
"20/06/18","08:10",0.0,21.1,81.5,1001.2,320.6,1.3,2.1,336.6,0.07,17.9,22.2,"08:03:28",1
"20/06/18","08:20",0.0,21.6,81.7,1000.8,276.3,1.0,1.4,269.3,0.10,18.4,22.4,"08:13:20",1
"20/06/18","08:30",0.0,21.7,82.1,1000.8,349.0,1.1,2.2,340.3,0.08,18.6,22.4,"08:21:20",1
"20/06/18","08:40",0.0,21.9,82.6,1001.0,288.2,0.8,1.4,324.8,0.08,18.8,22.3,"08:31:12",1
"20/06/18","08:50",0.0,22.2,82.9,1000.3,300.5,0.6,0.9,291.5,0.10,19.2,22.5,"08:40:16",1
"20/06/18","09:00",0.0,22.5,82.3,1000.5,260.3,0.3,1.0,266.5,0.13,19.4,22.5,"08:55:12",1
"20/06/18","09:10",0.0,22.8,82.0,1000.8,275.3,0.6,1.6,324.9,0.13,19.6,22.7,"09:00:02",1
"20/06/18","09:20",0.0,22.9,81.2,1001.5,289.4,0.7,1.6,326.9,0.10,19.5,22.8,"09:11:04",1
"20/06/18","09:30",0.0,22.7,80.3,1001.5,310.2,0.8,1.6,342.0,0.05,19.2,23.0,"09:29:28",1
"20/06/18","09:40",0.0,22.6,79.9,1001.2,306.4,0.7,1.2,323.0,0.05,19.0,22.8,"09:36:40",1
"20/06/18","09:50",0.0,22.6,80.0,1000.3,306.7,0.8,1.2,305.5,0.08,19.0,22.9,"09:45:12",1
"20/06/18","10:00",0.0,22.8,80.4,1000.5,301.5,0.5,1.0,304.5,0.12,19.3,23.1,"09:50:40",1
"20/06/18","10:10",0.0,22.6,80.7,1000.8,293.0,0.7,1.2,315.9,0.10,19.2,23.2,"10:04:40",1
"20/06/18","10:20",0.0,22.8,81.5,1000.8,314.3,1.1,2.0,336.3,0.10,19.5,23.2,"10:14:08",1
"20/06/18","10:30",0.0,22.3,82.3,1001.0,306.1,1.1,1.8,336.0,0.07,19.2,23.2,"10:20:16",1
"20/06/18","10:40",0.0,22.2,83.1,1001.0,315.2,1.2,2.0,338.8,0.07,19.2,23.2,"10:38:00",1
"20/06/18","10:50",0.0,21.9,83.7,1001.5,338.8,1.2,2.0,347.4,0.05,19.1,23.3,"10:48:00",1
"20/06/18","11:00",0.0,21.9,84.4,1001.7,333.8,1.3,2.7,344.4,0.05,19.2,23.3,"10:57:04",1
"20/06/18","11:10",0.0,21.9,85.0,1001.7,297.2,0.6,1.3,335.5,0.04,19.3,23.4,"11:00:08",1
"20/06/18","11:20",0.0,21.9,85.4,1001.5,324.5,0.5,1.0,331.2,0.06,19.4,23.3,"11:12:00",1
"20/06/18","11:30",0.0,21.9,85.9,1001.2,322.4,0.8,1.8,346.1,0.05,19.5,23.4,"11:28:00",1
"20/06/18","11:40",0.0,21.7,86.4,1001.7,329.1,1.1,2.1,329.6,0.05,19.4,23.2,"11:33:44",1
"20/06/18","11:50",0.0,21.7,86.8,1001.5,309.5,0.7,1.1,334.1,0.05,19.4,23.1,"11:40:08",1
"20/06/18","12:00",0.0,21.7,87.3,1001.5,310.0,1.0,1.8,326.7,0.04,19.5,23.4,"11:55:48",1
"20/06/18","12:10",0.0,21.6,87.7,1001.5,320.0,1.0,1.8,327.2,0.04,19.5,23.2,"12:02:08",1
"20/06/18","12:20",0.0,21.3,88.2,1001.5,322.0,1.0,1.7,333.1,0.05,19.3,23.2,"12:15:52",1
"20/06/18","12:30",0.0,21.4,88.5,1001.2,297.0,0.3,1.1,345.2,0.05,19.5,23.1,"12:21:44",1
"20/06/18","12:40",0.0,21.4,88.7,1001.5,291.3,0.3,1.0,338.1,0.07,19.5,23.2,"12:39:44",1
"20/06/18","12:50",0.0,21.4,89.0,1001.5,1.8,0.5,1.7,350.4,0.08,19.6,23.3,"12:42:08",1
"20/06/18","13:00",0.0,21.3,89.1,1001.5,113.6,0.6,1.7,137.1,0.06,19.5,23.1,"12:58:48",1
"20/06/18","13:10",0.0,21.2,89.5,1001.5,110.7,1.1,1.9,115.3,0.10,19.4,23.2,"13:04:50",1
"20/06/18","13:20",0.0,21.0,89.6,1001.2,73.1,1.0,2.2,120.1,0.06,19.3,23.2,"13:11:28",1
"20/06/18","13:30",0.0,21.1,89.7,1001.2,16.6,0.7,1.4,133.6,0.04,19.4,23.0,"13:28:34",1
"20/06/18","13:40",0.0,20.7,89.5,1001.0,122.9,1.0,2.6,110.6,0.02,19.0,23.2,"13:36:58",1
"20/06/18","13:50",0.0,20.5,90.1,1001.2,128.2,1.1,1.9,122.6,0.03,18.9,23.2,"13:42:32",1
"20/06/18","14:00",0.0,20.7,90.1,1001.0,123.7,1.0,1.9,114.0,0.02,19.1,23.0,"13:58:10",1
"20/06/18","14:10",0.0,20.2,90.3,1000.5,117.1,1.0,2.1,111.0,0.04,18.6,23.1,"14:04:40",1
"20/06/18","14:20",0.0,19.9,90.1,1000.8,135.3,1.1,2.4,128.3,0.05,18.3,23.1,"14:17:12",1
"20/06/18","14:30",0.0,19.9,90.2,1000.8,163.7,1.0,2.1,135.2,0.04,18.3,23.0,"14:27:52",1
"20/06/18","14:40",0.0,20.1,90.1,1000.0,157.0,1.0,1.9,125.0,0.06,18.5,22.8,"14:36:24",1
"20/06/18","14:50",0.0,20.2,90.2,999.8,110.9,1.0,2.4,117.9,0.01,18.6,22.9,"14:40:40",1
"20/06/18","15:00",0.0,19.9,90.4,1000.3,75.8,0.8,2.7,113.5,0.02,18.3,23.0,"14:51:20",1
"20/06/18","15:10",0.0,19.9,90.6,1000.0,78.9,0.8,2.0,59.6,0.03,18.4,22.9,"15:01:44",1
"20/06/18","15:20",0.0,20.0,90.8,999.8,97.3,0.7,1.7,124.0,0.05,18.5,22.7,"15:18:32",1
"20/06/18","15:30",0.0,19.8,90.9,999.3,73.8,1.0,2.5,36.9,0.04,18.3,22.8,"15:23:48",1
"20/06/18","15:40",0.0,19.8,91.2,999.1,84.0,0.7,1.6,109.7,0.05,18.4,22.7,"15:34:08",1
"20/06/18","15:50",0.0,19.7,91.3,999.6,61.0,0.6,1.3,111.0,0.04,18.3,22.8,"15:42:00",1
"20/06/18","16:00",0.0,19.5,91.3,999.6,81.6,0.7,1.4,94.7,0.02,18.1,22.7,"15:53:44",1
"20/06/18","16:10",0.0,19.6,91.6,999.3,31.4,0.3,1.4,119.3,0.03,18.2,22.6,"16:02:00",1
"20/06/18","16:20",0.0,19.6,91.6,999.3,348.0,0.6,1.3,316.4,0.02,18.2,22.7,"16:18:40",1
"20/06/18","16:30",0.0,19.3,91.7,998.9,275.5,0.7,3.2,354.1,0.01,18.0,22.6,"16:29:04",1
"20/06/18","16:40",0.0,19.2,91.7,999.1,67.8,0.7,2.1,12.2,0.02,17.9,22.5,"16:31:44",1
"20/06/18","16:50",0.0,19.1,91.8,999.3,102.3,0.8,1.9,115.3,0.00,17.8,22.6,"16:42:00",1
"20/06/18","17:00",0.0,19.0,91.8,999.6,77.4,0.6,1.7,6.8,0.00,17.7,22.5,"16:56:40",1
"20/06/18","17:10",0.0,19.1,91.8,999.1,87.8,0.5,1.4,121.9,0.00,17.8,22.4,"17:06:56",1
"20/06/18","17:20",0.0,19.0,91.8,998.9,329.6,0.6,1.6,337.3,0.00,17.7,22.3,"17:17:44",1
"20/06/18","17:30",0.0,18.9,91.9,999.3,298.7,0.6,1.9,313.9,0.00,17.6,22.5,"17:21:52",1
"20/06/18","17:40",0.0,18.9,91.9,999.1,343.1,0.5,1.3,108.7,0.00,17.6,22.3,"17:30:02",1
"20/06/18","17:50",0.0,18.8,92.0,999.1,48.6,0.7,2.2,110.2,0.00,17.5,22.4,"17:41:12",1
"20/06/18","18:00",0.0,18.7,92.1,999.6,42.5,0.6,1.8,155.9,0.00,17.4,22.2,"17:55:00",1
"20/06/18","18:10",0.0,18.7,92.2,999.1,89.3,0.8,1.9,126.3,0.00,17.4,22.1,"18:09:30",1
"20/06/18","18:20",0.0,18.7,92.3,999.1,116.5,0.6,1.6,122.2,0.00,17.5,22.1,"18:16:10",1
"20/06/18","18:30",0.0,18.6,92.4,999.6,306.5,0.6,1.6,308.2,0.00,17.4,22.0,"18:26:42",1
"20/06/18","18:40",0.0,18.6,92.5,999.3,300.1,0.5,1.1,123.0,0.00,17.4,22.0,"18:30:02",1
"20/06/18","18:50",0.0,18.5,92.6,999.1,122.8,0.8,1.8,122.8,0.00,17.3,22.0,"18:43:30",1
"20/06/18","19:00",0.0,18.5,92.7,999.1,83.8,0.8,2.0,122.5,0.00,17.3,21.8,"18:58:36",1
"20/06/18","19:10",0.0,18.5,92.8,999.1,124.5,1.1,2.4,117.5,0.00,17.4,21.8,"19:09:26",1
"20/06/18","19:20",0.0,18.5,92.9,999.1,127.2,1.3,3.2,107.8,0.00,17.4,21.8,"19:15:34",1
"20/06/18","19:30",0.0,18.5,92.9,999.3,161.4,0.7,1.9,159.1,0.00,17.4,21.6,"19:22:02",1
"20/06/18","19:40",0.0,18.5,92.9,999.6,343.5,0.6,1.4,92.1,0.00,17.4,21.6,"19:30:42",1
"20/06/18","19:50",0.0,18.5,93.0,999.8,315.3,1.1,2.5,322.1,0.00,17.4,21.7,"19:47:08",1
"20/06/18","20:00",0.0,18.4,93.1,999.8,311.1,1.7,2.2,322.3,0.00,17.3,21.6,"19:53:24",1
"20/06/18","20:10",0.0,18.3,93.1,999.6,297.5,0.5,1.1,301.7,0.00,17.2,21.4,"20:00:08",1
"20/06/18","20:20",0.0,18.3,93.3,999.3,284.8,1.1,1.9,307.2,0.00,17.2,21.5,"20:12:28",1
"20/06/18","20:30",0.0,18.2,93.4,999.6,270.4,0.8,1.6,240.9,0.00,17.2,21.5,"20:27:18",1
"20/06/18","20:40",0.0,18.2,93.5,999.6,279.9,0.6,1.2,224.5,0.00,17.2,21.4,"20:31:36",1
"20/06/18","20:50",0.0,18.2,93.7,999.1,246.6,0.6,1.1,294.9,0.00,17.2,21.5,"20:40:08",1
"20/06/18","21:00",0.0,18.4,93.6,999.1,348.9,0.8,1.7,334.9,0.00,17.4,21.3,"20:58:16",1
"20/06/18","21:10",0.0,18.3,93.7,999.1,332.0,0.6,1.8,345.7,0.00,17.3,21.3,"21:03:38",1
"20/06/18","21:20",0.0,18.3,93.9,998.9,154.8,0.6,1.7,246.2,0.00,17.3,21.1,"21:16:24",1
"20/06/18","21:30",0.0,18.3,94.0,998.9,141.7,1.1,2.9,112.8,0.00,17.4,21.2,"21:27:44",1
"20/06/18","21:40",0.0,18.5,94.0,998.9,147.6,1.0,2.7,114.9,0.00,17.6,21.3,"21:34:16",1
"20/06/18","21:50",0.0,18.5,94.0,999.1,120.9,1.0,3.5,129.0,0.00,17.6,21.3,"21:44:24",1
"20/06/18","22:00",0.0,18.6,94.0,998.6,67.4,0.5,1.8,114.3,0.00,17.7,21.2,"21:54:16",1
"20/06/18","22:10",0.0,18.6,94.0,998.6,35.6,0.3,1.0,113.2,0.00,17.7,21.3,"22:00:24",1
"20/06/18","22:20",0.0,18.5,94.0,998.6,277.7,0.5,0.9,301.1,0.00,17.6,21.2,"22:12:56",1
"20/06/18","22:30",0.0,18.5,94.1,998.4,353.5,0.6,1.3,347.6,0.00,17.6,21.2,"22:23:44",1
"20/06/18","22:40",0.0,18.5,94.2,998.4,337.5,0.8,1.8,356.0,0.00,17.6,21.2,"22:36:24",1
"20/06/18","22:50",0.0,18.4,94.2,998.2,326.3,0.6,1.1,339.5,0.00,17.5,21.1,"22:40:32",1
"20/06/18","23:00",0.0,18.4,94.2,997.7,328.8,0.2,0.8,330.0,0.00,17.5,21.1,"22:52:32",1
"20/06/18","23:10",0.0,18.4,94.3,997.7,15.2,0.7,1.6,341.6,0.00,17.5,21.1,"23:01:52",1
"20/06/18","23:20",0.0,18.5,94.4,997.2,11.5,0.5,1.4,356.0,0.00,17.6,21.2,"23:12:08",1
"20/06/18","23:30",0.0,18.5,94.5,997.2,129.9,0.6,2.0,126.9,0.00,17.6,21.0,"23:28:32",1
"20/06/18","23:40",0.0,18.5,94.5,997.2,63.3,0.5,1.1,326.6,0.00,17.6,21.1,"23:35:04",1
"20/06/18","23:50",0.0,18.7,94.5,996.7,352.3,0.6,1.9,33.6,0.00,17.8,21.2,"23:42:24",1
"20/06/18","24:00",0.0,18.7,94.5,996.7,332.3,0.3,1.3,335.8,0.00,17.8,21.1,"23:58:00",1
